Location: Unspecified
(0.0000°N, 0.0000°E)
Time: 12:42:29
(UTC+00:00)

Tiangong 1 - Pass Details

Date: 12 December 2017
Orbit: 274 x 301 km, 42.8° (Epoch: 16 December)

Event Time Altitude Azimuth Distance (km) Brightness Sun altitude
Rises 18:21:12 0° 310° (NW) 1,958 5.0 -6.3°
Reaches altitude 10° 18:23:10 10° 307° (NW) 1,136 3.9 -6.7°
Maximum altitude 18:25:40 59° 226° (SW) 336 1.1 -7.3°
Drops below altitude 10° 18:28:10 10° 144° (SE) 1,126 3.3 -7.9°
Sets 18:30:06 0° 140° (SE) 1,938 4.5 -8.3°
